When you browse on this site, cookies collect data to enhance your experience and personalize the content and advertising you see.
Visit our Privacy Policy to learn more. By continuing to use the site, you agree to this use of cookies and data.
  • In United Kingdom
  • List of Countries
  • For 7 days
  • Water Temperature
  • Satellite Maps
  • Weather Map
  • Weather Widgets
  • user-avatar
    Login

    Hourly Weather Barra

    Today, 22 February, Friday

    Time Temperature Precipitation Wind Pressure Humidity
    00:00 +26°C° 0 mm 1 mps 743 mmHg 42%
    01:00 +25°C° 0 mm 1 mps 743 mmHg 42%
    02:00 +25°C° 0 mm 1 mps 743 mmHg 40%
    03:00 +24°C° 0 mm 2 mps 743 mmHg 37%
    04:00 +24°C° 0 mm 2 mps 743 mmHg 32%
    05:00 +23°C° 0 mm 2 mps 743 mmHg 35%
    06:00 +23°C° 0 mm 2 mps 743 mmHg 38%
    07:00 +23°C° 0 mm 2 mps 744 mmHg 41%
    08:00 +26°C° 0 mm 2 mps 744 mmHg 35%
    09:00 +30°C° 0 mm 1 mps 744 mmHg 30%
    10:00 +34°C° 0 mm 1 mps 744 mmHg 24%
    11:00 +36°C° 0 mm 2 mps 744 mmHg 27%
    12:00 +36°C° 0 mm 2 mps 744 mmHg 29%
    13:00 +37°C° 0 mm 2 mps 744 mmHg 31%
    14:00 +36°C° 0 mm 3 mps 743 mmHg 39%
    15:00 +35°C° 0 mm 3 mps 743 mmHg 48%
    16:00 +34°C° 0 mm 3 mps 743 mmHg 56%
    17:00 +33°C° 0 mm 3 mps 743 mmHg 66%
    18:00 +30°C° 0 mm 2 mps 743 mmHg 75%
    19:00 +28°C° 0 mm 2 mps 744 mmHg 85%
    20:00 +28°C° 0.1 mm 2 mps 744 mmHg 86%
    21:00 +28°C° 0.1 mm 2 mps 745 mmHg 88%
    22:00 +28°C° 0.1 mm 2 mps 746 mmHg 89%
    23:00 +27°C° 0.1 mm 2 mps 745 mmHg 90%

    Tomorrow, 23 February, Saturday

    Time Temperature Precipitation Wind Pressure Humidity
    00:00 +27°C° 0.1 mm 2 mps 745 mmHg 91%
    01:00 +27°C° 0.1 mm 2 mps 745 mmHg 92%
    02:00 +27°C° 0.1 mm 2 mps 745 mmHg 92%
    03:00 +27°C° 0.1 mm 1 mps 745 mmHg 93%
    04:00 +27°C° 0.1 mm 1 mps 745 mmHg 94%
    05:00 +27°C° 0.1 mm 1 mps 745 mmHg 93%
    06:00 +27°C° 0.1 mm 1 mps 745 mmHg 93%
    07:00 +27°C° 0.1 mm 1 mps 746 mmHg 93%
    08:00 +28°C° 0.1 mm 1 mps 746 mmHg 84%
    09:00 +30°C° 0.1 mm 1 mps 746 mmHg 75%
    10:00 +32°C° 0.1 mm 2 mps 747 mmHg 66%
    11:00 +32°C° 0 mm 2 mps 746 mmHg 63%
    12:00 +34°C° 0 mm 3 mps 746 mmHg 59%
    13:00 +35°C° 0 mm 3 mps 746 mmHg 55%
    14:00 +34°C° 0.1 mm 3 mps 745 mmHg 58%
    15:00 +34°C° 0.1 mm 3 mps 745 mmHg 61%
    16:00 +33°C° 0.1 mm 3 mps 745 mmHg 64%
    17:00 +30°C° 0.1 mm 3 mps 745 mmHg 69%
    18:00 +29°C° 0.1 mm 2 mps 746 mmHg 75%
    19:00 +27°C° 0.1 mm 2 mps 746 mmHg 81%
    20:00 +27°C° 0.3 mm 2 mps 747 mmHg 83%
    21:00 +27°C° 0.3 mm 2 mps 747 mmHg 85%
    22:00 +27°C° 0.3 mm 2 mps 748 mmHg 87%
    23:00 +26°C° 0.1 mm 2 mps 748 mmHg 88%

    Day after tomorrow, 24 February, Sunday

    Time Temperature Precipitation Wind Pressure Humidity
    00:00 +26°C° 0.1 mm 1 mps 747 mmHg 90%
    01:00 +25°C° 0.1 mm 1 mps 747 mmHg 91%
    02:00 +25°C° 0.2 mm 1 mps 747 mmHg 92%
    03:00 +25°C° 0.2 mm 1 mps 747 mmHg 93%
    04:00 +25°C° 0.2 mm 1 mps 747 mmHg 93%
    05:00 +25°C° 0.7 mm 1 mps 747 mmHg 93%
    06:00 +26°C° 0.7 mm 1 mps 748 mmHg 92%
    07:00 +26°C° 0.7 mm 1 mps 748 mmHg 92%
    08:00 +28°C° 0.8 mm 1 mps 749 mmHg 82%
    09:00 +29°C° 0.8 mm 2 mps 749 mmHg 73%
    10:00 +31°C° 0.8 mm 2 mps 749 mmHg 63%
    11:00 +31°C° 0.8 mm 2 mps 749 mmHg 65%
    12:00 +31°C° 0.8 mm 3 mps 749 mmHg 67%
    13:00 +31°C° 0.8 mm 3 mps 748 mmHg 69%
    14:00 +31°C° 0.3 mm 3 mps 748 mmHg 67%
    15:00 +31°C° 0.3 mm 3 mps 747 mmHg 66%
    16:00 +30°C° 0.3 mm 3 mps 747 mmHg 65%
    17:00 +29°C° 0.4 mm 3 mps 748 mmHg 72%
    18:00 +28°C° 0.4 mm 3 mps 748 mmHg 79%
    19:00 +26°C° 0.4 mm 2 mps 749 mmHg 86%
    20:00 +26°C° 0.5 mm 2 mps 749 mmHg 88%
    21:00 +26°C° 0.5 mm 2 mps 750 mmHg 90%
    22:00 +25°C° 0.5 mm 2 mps 750 mmHg 92%
    23:00 +25°C° 0.4 mm 2 mps 750 mmHg 93%

    25 February, Monday

    Time Temperature Precipitation Wind Pressure Humidity
    00:00 +25°C° 0.4 mm 1 mps 749 mmHg 94%
    01:00 +25°C° 0.4 mm 1 mps 749 mmHg 94%
    02:00 +25°C° 0.4 mm 1 mps 749 mmHg 95%
    03:00 +25°C° 0.4 mm 2 mps 748 mmHg 95%
    04:00 +24°C° 0.4 mm 2 mps 748 mmHg 96%
    05:00 +25°C° 0.3 mm 2 mps 749 mmHg 95%
    06:00 +25°C° 0.3 mm 2 mps 749 mmHg 94%
    07:00 +25°C° 0.3 mm 3 mps 750 mmHg 94%
    08:00 +26°C° 0.4 mm 3 mps 750 mmHg 88%
    09:00 +27°C° 0.4 mm 3 mps 750 mmHg 83%
    10:00 +28°C° 0.4 mm 4 mps 751 mmHg 78%
    11:00 +29°C° 0.5 mm 4 mps 750 mmHg 73%
    12:00 +30°C° 0.5 mm 4 mps 750 mmHg 68%
    13:00 +32°C° 0.5 mm 4 mps 749 mmHg 64%
    14:00 +32°C° 0.1 mm 4 mps 749 mmHg 63%
    15:00 +32°C° 0.1 mm 4 mps 748 mmHg 62%
    16:00 +32°C° 0.1 mm 4 mps 748 mmHg 61%
    17:00 +29°C° 0 mm 4 mps 748 mmHg 67%
    18:00 +28°C° 0 mm 3 mps 749 mmHg 74%
    19:00 +26°C° 0 mm 3 mps 749 mmHg 80%
    20:00 +26°C° 0 mm 3 mps 749 mmHg 81%
    21:00 +26°C° 0 mm 3 mps 750 mmHg 83%
    22:00 +26°C° 0 mm 3 mps 750 mmHg 85%
    23:00 +25°C° 0.1 mm 3 mps 750 mmHg 87%

    26 February, Tuesday

    Time Temperature Precipitation Wind Pressure Humidity
    00:00 +25°C° 0.1 mm 3 mps 749 mmHg 89%
    01:00 +25°C° 0.1 mm 3 mps 749 mmHg 91%
    02:00 +25°C° 0.3 mm 3 mps 749 mmHg 92%
    03:00 +25°C° 0.3 mm 3 mps 748 mmHg 93%
    04:00 +24°C° 0.3 mm 3 mps 748 mmHg 94%
    05:00 +24°C° 0.3 mm 3 mps 748 mmHg 94%
    06:00 +25°C° 0.3 mm 4 mps 749 mmHg 94%
    07:00 +25°C° 0.3 mm 4 mps 749 mmHg 94%
    08:00 +26°C° 0.2 mm 4 mps 749 mmHg 84%
    09:00 +28°C° 0.2 mm 4 mps 749 mmHg 74%
    10:00 +30°C° 0.2 mm 4 mps 749 mmHg 64%
    11:00 +32°C° 0 mm 4 mps 749 mmHg 59%
    12:00 +32°C° 0 mm 4 mps 748 mmHg 53%
    13:00 +33°C° 0 mm 4 mps 748 mmHg 48%
    14:00 +33°C° 0 mm 4 mps 747 mmHg 48%
    15:00 +33°C° 0 mm 4 mps 747 mmHg 49%
    16:00 +33°C° 0 mm 3 mps 746 mmHg 49%
    17:00 +30°C° 0 mm 3 mps 747 mmHg 58%
    18:00 +28°C° 0 mm 2 mps 747 mmHg 66%
    19:00 +26°C° 0 mm 2 mps 747 mmHg 74%
    20:00 +26°C° 0 mm 2 mps 748 mmHg 77%
    21:00 +25°C° 0 mm 2 mps 748 mmHg 79%
    22:00 +25°C° 0 mm 2 mps 748 mmHg 82%
    23:00 +25°C° 0.1 mm 2 mps 748 mmHg 84%

    27 February, Wednesday

    Time Temperature Precipitation Wind Pressure Humidity
    00:00 +25°C° 0.1 mm 2 mps 748 mmHg 87%
    01:00 +24°C° 0.1 mm 2 mps 747 mmHg 89%
    02:00 +24°C° 0.2 mm 2 mps 747 mmHg 90%
    03:00 +24°C° 0.2 mm 2 mps 747 mmHg 92%
    04:00 +24°C° 0.2 mm 2 mps 747 mmHg 93%
    05:00 +24°C° 0.2 mm 2 mps 747 mmHg 93%
    06:00 +25°C° 0.2 mm 2 mps 747 mmHg 92%
    07:00 +25°C° 0.2 mm 2 mps 748 mmHg 92%
    08:00 +27°C° 0.1 mm 3 mps 748 mmHg 83%
    09:00 +28°C° 0.1 mm 3 mps 748 mmHg 73%
    10:00 +30°C° 0.1 mm 3 mps 748 mmHg 64%
    11:00 +31°C° 0 mm 3 mps 747 mmHg 58%
    12:00 +33°C° 0 mm 3 mps 747 mmHg 51%
    13:00 +34°C° 0 mm 3 mps 746 mmHg 44%
    14:00 +34°C° 0 mm 3 mps 746 mmHg 45%
    15:00 +34°C° 0 mm 3 mps 746 mmHg 47%
    16:00 +34°C° 0 mm 3 mps 745 mmHg 48%
    17:00 +31°C° 0 mm 2 mps 746 mmHg 56%
    18:00 +29°C° 0 mm 2 mps 746 mmHg 64%
    19:00 +27°C° 0 mm 2 mps 746 mmHg 73%
    20:00 +26°C° 0 mm 2 mps 747 mmHg 76%
    21:00 +26°C° 0 mm 1 mps 747 mmHg 79%
    22:00 +25°C° 0 mm 1 mps 747 mmHg 83%
    23:00 +25°C° 0.1 mm 2 mps 747 mmHg 85%
    Show more